Temp
6 6 7 7 7 7 8 8 9 9 9 9 9 9 9 10 10 11 12 9 10 12 13 13 13 14 15 14 14 14 10 12 13 14 13 13 13 14 14 15 14 15 15 14 14
6 6 6 7 8 6 7 8 9 9 9 8 9 9 10 10 12 12 8 10 11 12 13 13 13 14 14 13 14 12 9 13 12 12 11 12 12 12 13 14 14 15 15 15 14
6 6 7 8 7 7 7 8 8 9 9 9 9 9 10 11 13 8 9 11 11 12 13 13 13 13 13 13 13 12 10 12 11 11 12 11 12 11 11 10 13 14 14 14 14
6 6 7 6 7 7 7 7 8 9 9 8 9 10 10 11 8 8 9 10 12 12 13 13 13 13 11 11 12 12 12 12 11 11 11 11 11 10 11 13 13 13 13 13 13
5 6 6 7 6 7 7 8 8 8 8 9 10 10 11 10 6 8 9 11 12 12 13 13 13 12 10 11 12 11 10 11 11 11 11 11 10 9 11 13 12 12 13 13 13
5 6 6 6 6 5 7 8 8 8 9 10 10 11 12 6 7 7 9 10 11 12 12 12 12 11 11 10 10 10 10 10 11 11 11 10 9 9 12 12 13 12 13 12 12
5 5 6 7 6 7 8 8 8 9 9 10 9 11 11 6 6 7 9 10 11 11 11 11 11 12 11 9 10 10 10 9 9 10 10 9 9 6 12 12 12 12 12 12 11
5 6 6 6 7 7 8 8 9 9 9 10 10 11 6 7 7 8 9 9 10 11 11 11 11 11 10 10 10 10 8 9 10 10 10 10 8 10 12 11 12 11 11 10 10
6 6 6 7 7 8 8 9 9 9 9 10 10 11 6 7 8 8 9 9 9 10 10 11 11 10 9 7 6 5 8 9 8 10 9 9 7 9 11 10 10 11 10 10 10
6 6 6 6 7 7 8 8 9 9 9 10 10 10 7 7 8 8 8 9 9 10 10 10 10 3 3 2 7 7 6 7 7 8 8 7 7 8 9 9 9 9 9 8 9
6 7 7 7 7 8 9 10 10 9 8 7 7 7 7 7 8 9 9 10 9 9 7 8 3 3 6 7 7 7 7 6 6 8 7 7 7 8 9 9 7 7 7 8 9
7 7 8 8 9 9 10 10 8 8 7 8 8 8 8 8 8 9 9 9 9 5 8 5 5 7 8 8 8 7 7 6 7 8 7 6 6 8 8 7 7 7 7 8 10
7 8 8 9 9 10 10 8 8 8 8 8 8 8 8 8 8 8 9 8 8 6 5 5 7 8 8 8 8 8 7 7 5 6 6 5 6 9 9 7 6 7 8 8 7
8 9 9 9 10 9 9 8 8 9 2 6 8 8 8 8 8 8 8 8 8 7 7 7 7 8 7 7 8 7 8 7 6 5 3 6 6 7 8 7 6 8 8 8 7
9 9 10 10 9 9 9 9 9 9 3 8 8 9 9 9 9 9 8 8 7 7 7 8 7 7 8 9 8 8 8 7 6 4 6 6 2 6 7 7 7 8 9 8 8
9 9 9 10 9 9 9 9 9 3 3 5 9 9 9 9 9 9 8 8 8 8 7 7 8 8 8 8 8 8 7 7 6 5 2 5 4 5 5 6 8 7 8 8 8
10 10 10 9 9 9 9 9 3 2 7 8 8 9 9 10 10 9 9 8 7 5 2 6 8 8 8 7 8 5 1 2 4 3 5 5 3 6 8 7 6 7 9 8 8
11 10 10 9 9 9 9 4 4 7 6 8 8 9 9 10 10 10 9 7 9 6 2 3 5 7 7 7 6 7 4 2 5 4 4 6 4 7 9 8 9 8 8 8 8
10 10 10 9 9 9 9 2 4 5 7 8 9 8 8 9 9 10 10 7 8 8 7 5 7 8 7 9 8 8 4 7 4 5 4 3 5 7 8 7 7 7 8 9 9
10 10 10 10 10 9 4 5 6 8 9 9 9 9 9 9 9 9 9 10 9 9 8 8 5 8 9 9 8 8 8 5 2 5 5 4 4 5 6 9 9 7 8 10 10
10 10 10 10 10 9 2 4 7 8 9 9 9 9 9 9 10 9 10 10 9 8 8 8 6 7 8 6 6 6 6 6 5 4 5 5 5 4 6 9 9 9 11 11 11
10 7 10 10 8 4 5 8 9 8 8 8 8 9 9 9 9 9 10 10 10 9 8 8 5 3 6 8 7 7 7 6 4 7 5 5 5 8 7 8 9 10 11 11 11
10 9 10 10 3 4 7 8 8 8 8 8 9 9 9 9 9 8 10 10 10 8 7 7 5 2 6 6 8 8 7 7 5 3 4 4 6 8 7 8 10 9 10 11 10
9 3 9 10 8 6 8 8 8 8 9 9 9 9 9 8 8 8 9 9 9 9 8 8 4 5 4 8 7 7 7 6 5 2 4 5 8 11 10 8 9 11 11 11 11
8 5 6 4 6 7 8 8 8 8 8 8 8 7 7 7 8 7 8 9 8 8 7 6 4 3 4 5 5 5 6 6 4 6 6 8 8 9 9 7 8 10 11 11 12
8 7 6 6 7 7 6 8 7 9 7 7 7 8 6 6 7 9 8 8 7 5 6 4 4 4 2 5 4 4 5 5 6 7 7 7 7 10 10 10 9 10 11 11 12
6 6 6 5 5 5 5 8 8 9 9 9 7 7 6 6 8 8 8 8 8 5 4 4 3 3 3 4 4 6 7 6 5 5 6 6 8 9 8 7 9 11 11 11 12
Height
1450 1454 1459 1463 1464 1471 1473 1484 1490 1496 1498 1501 1504 1507 1510 1512 1514 1515 1516 1520 1522 1521 1522 1523 1524 1525 1528 1528 1529 1531 1542 1547 1544 1541 1543 1542 1541 1542 1541 1540 1539 1539 1539 1539 1538
1449 1453 1459 1461 1466 1470 1477 1484 1492 1497 1500 1503 1506 1510 1512 1514 1516 1514 1523 1523 1523 1523 1524 1524 1526 1528 1529 1530 1531 1532 1545 1542 1542 1543 1544 1543 1543 1542 1541 1538 1536 1536 1537 1537 1536
1451 1457 1463 1466 1471 1473 1476 1484 1493 1498 1502 1507 1509 1511 1512 1513 1516 1523 1522 1523 1524 1524 1526 1525 1528 1529 1531 1533 1534 1535 1542 1540 1542 1542 1543 1543 1543 1543 1542 1536 1534 1534 1532 1532 1532
1460 1461 1460 1467 1470 1473 1479 1486 1494 1500 1506 1510 1511 1512 1514 1514 1527 1526 1526 1525 1525 1527 1527 1527 1529 1531 1534 1537 1537 1538 1539 1540 1543 1543 1543 1543 1543 1542 1539 1532 1533 1533 1532 1530 1529
1465 1465 1470 1474 1477 1471 1480 1489 1498 1504 1509 1512 1512 1514 1515 1517 1528 1529 1529 1527 1527 1528 1527 1528 1531 1534 1538 1538 1539 1539 1542 1542 1542 1542 1543 1542 1541 1541 1532 1531 1531 1530 1529 1528 1527
1473 1473 1476 1479 1479 1480 1486 1494 1503 1509 1512 1514 1515 1516 1517 1522 1531 1530 1530 1529 1529 1530 1531 1531 1534 1536 1537 1539 1542 1542 1543 1542 1542 1542 1543 1542 1539 1539 1530 1528 1528 1527 1527 1526 1525
1480 1481 1484 1487 1487 1489 1497 1503 1509 1513 1516 1517 1518 1520 1520 1532 1533 1533 1532 1531 1531 1532 1534 1534 1536 1538 1539 1541 1542 1543 1543 1542 1542 1542 1541 1542 1537 1535 1528 1528 1527 1526 1525 1524 1520
1485 1487 1491 1494 1497 1502 1508 1513 1516 1518 1520 1520 1522 1522 1531 1535 1535 1536 1535 1534 1534 1535 1536 1536 1538 1538 1541 1541 1542 1543 1545 1548 1541 1540 1541 1542 1540 1526 1526 1526 1524 1521 1519 1518 1517
1491 1493 1498 1501 1505 1512 1516 1518 1520 1522 1523 1523 1525 1524 1536 1538 1538 1537 1537 1536 1537 1538 1537 1538 1538 1541 1542 1545 1552 1552 1551 1548 1546 1540 1541 1542 1537 1521 1523 1523 1519 1518 1516 1514 1514
1500 1501 1504 1508 1512 1516 1519 1521 1523 1524 1525 1525 1527 1529 1540 1542 1539 1539 1539 1538 1539 1539 1539 1539 1540 1546 1549 1555 1559 1555 1557 1554 1552 1543 1541 1541 1532 1518 1517 1516 1514 1513 1513 1512 1510
1510 1514 1516 1518 1519 1521 1522 1522 1526 1530 1529 1534 1538 1538 1542 1542 1541 1541 1539 1539 1539 1540 1542 1541 1552 1563 1553 1551 1552 1552 1555 1556 1549 1542 1541 1535 1527 1516 1510 1510 1510 1510 1510 1510 1507
1521 1523 1525 1524 1525 1525 1524 1523 1527 1534 1539 1541 1541 1541 1542 1542 1542 1542 1541 1541 1541 1546 1543 1549 1558 1553 1551 1551 1551 1552 1553 1554 1545 1541 1542 1533 1522 1513 1509 1509 1509 1509 1509 1507 1504
1528 1529 1528 1527 1528 1529 1528 1530 1533 1535 1538 1545 1545 1544 1544 1545 1544 1543 1543 1544 1544 1548 1550 1554 1554 1552 1551 1551 1551 1551 1553 1553 1556 1545 1539 1537 1524 1511 1509 1509 1509 1507 1506 1503 1501
1533 1532 1532 1532 1535 1532 1532 1533 1534 1535 1548 1552 1547 1547 1547 1545 1546 1546 1545 1547 1546 1550 1550 1552 1552 1552 1552 1552 1552 1554 1549 1550 1551 1554 1560 1543 1545 1518 1510 1509 1507 1503 1502 1501 1500
1536 1536 1536 1534 1534 1533 1535 1534 1534 1536 1582 1556 1550 1549 1548 1548 1550 1548 1547 1546 1549 1550 1553 1555 1554 1553 1553 1551 1550 1552 1548 1549 1549 1553 1549 1545 1563 1517 1511 1507 1501 1498 1498 1498 1496
1541 1539 1538 1538 1536 1537 1536 1535 1536 1555 1583 1561 1553 1551 1550 1548 1549 1548 1548 1547 1549 1550 1551 1552 1552 1552 1551 1550 1550 1548 1549 1548 1548 1550 1572 1544 1552 1526 1518 1506 1497 1495 1495 1495 1494
1541 1541 1541 1540 1539 1538 1537 1537 1555 1576 1563 1558 1555 1551 1551 1550 1549 1548 1548 1550 1554 1563 1570 1555 1551 1550 1550 1551 1549 1552 1564 1575 1564 1568 1556 1545 1555 1519 1502 1498 1495 1493 1491 1491 1491
1542 1541 1541 1541 1540 1539 1538 1541 1566 1558 1558 1553 1554 1553 1553 1550 1549 1549 1551 1554 1551 1554 1569 1570 1566 1550 1548 1549 1553 1551 1559 1579 1571 1570 1562 1540 1545 1512 1495 1493 1491 1490 1488 1487 1487
1543 1543 1543 1542 1540 1539 1540 1563 1566 1559 1555 1555 1555 1556 1556 1552 1553 1551 1550 1554 1552 1552 1559 1563 1554 1546 1546 1545 1547 1549 1562 1554 1567 1564 1565 1553 1526 1500 1492 1490 1488 1487 1486 1484 1484
1544 1544 1544 1544 1543 1542 1545 1557 1556 1553 1553 1553 1555 1554 1555 1553 1552 1552 1551 1549 1551 1551 1551 1554 1564 1546 1545 1546 1547 1548 1551 1562 1573 1570 1563 1549 1538 1519 1498 1489 1486 1484 1482 1481 1480
1544 1544 1544 1543 1542 1543 1557 1557 1551 1552 1552 1553 1553 1552 1553 1553 1551 1552 1550 1549 1549 1551 1552 1553 1560 1553 1547 1548 1548 1552 1553 1553 1556 1562 1566 1560 1529 1496 1491 1484 1483 1481 1479 1478 1476
1543 1545 1544 1543 1544 1547 1550 1548 1549 1550 1551 1551 1551 1550 1551 1551 1551 1551 1548 1547 1547 1549 1552 1553 1560 1567 1549 1540 1540 1541 1543 1546 1561 1551 1556 1556 1525 1482 1481 1480 1478 1476 1475 1474 1473
1544 1543 1543 1542 1553 1553 1550 1549 1549 1550 1550 1550 1551 1550 1550 1551 1552 1550 1546 1545 1546 1547 1549 1552 1560 1573 1551 1546 1540 1539 1537 1538 1544 1551 1551 1558 1514 1477 1477 1476 1474 1472 1471 1470 1468
1545 1548 1545 1544 1546 1547 1548 1548 1548 1548 1549 1549 1550 1550 1550 1550 1549 1549 1547 1546 1546 1547 1548 1549 1556 1553 1559 1537 1537 1537 1533 1534 1538 1555 1541 1519 1489 1469 1473 1472 1468 1467 1466 1464 1462
1546 1548 1548 1550 1547 1547 1547 1546 1547 1548 1548 1548 1548 1549 1550 1551 1548 1550 1546 1545 1545 1546 1548 1550 1555 1553 1545 1538 1536 1532 1529 1529 1533 1526 1524 1490 1492 1465 1468 1469 1464 1464 1462 1459 1457
1548 1550 1549 1547 1547 1546 1546 1545 1546 1544 1546 1547 1548 1545 1546 1549 1546 1545 1545 1546 1545 1547 1547 1548 1550 1547 1545 1530 1531 1525 1517 1516 1513 1511 1506 1497 1488 1464 1462 1462 1461 1458 1457 1456 1453
1549 1549 1549 1548 1548 1550 1547 1543 1543 1543 1542 1541 1542 1545 1545 1542 1541 1540 1540 1540 1539 1541 1546 1547 1549 1550 1541 1532 1527 1511 1491 1492 1497 1495 1491 1497 1462 1461 1458 1458 1455 1453 1453 1451 1447
Wind_Speed
9 16 20 20 19 23 19 27 24 21 26 28 29 24 20 16 13 13 14 9 8 12 13 14 12 10 7 6 5 3 4 2 1 2 2 6 4 4 5 6 5 4 3 5 7
20 29 26 22 19 14 16 30 25 27 33 32 27 23 21 18 14 21 17 7 9 11 13 16 11 7 5 4 4 4 4 2 1 2 2 3 6 7 5 12 8 15 14 12 14
30 26 22 18 13 17 22 34 29 36 34 29 26 19 18 16 12 15 12 7 6 10 11 12 8 6 5 4 3 2 3 3 3 4 3 2 5 5 3 7 11 13 13 15 18
26 24 26 23 15 13 18 35 35 38 31 26 15 11 11 8 5 10 9 6 6 8 10 11 7 4 3 3 3 4 4 2 3 1 2 3 6 6 12 18 13 13 22 21 17
25 30 39 29 14 35 45 42 40 36 27 16 12 11 9 17 13 11 6 4 4 8 11 10 7 3 3 3 3 3 2 2 1 2 3 4 9 8 21 19 17 11 9 11 12
23 28 26 29 20 39 43 44 38 29 18 13 11 10 14 17 12 11 8 5 5 6 7 7 5 6 7 3 3 1 2 7 5 4 3 4 5 1 6 7 4 7 8 9 15
22 28 30 23 25 40 41 37 33 22 15 12 14 9 23 13 9 6 9 10 9 7 7 7 7 2 4 3 2 1 3 1 2 3 3 4 7 7 4 7 7 12 21 19 20
19 28 32 34 42 35 36 31 23 18 14 13 11 5 11 10 7 5 8 11 11 9 10 9 9 8 3 3 2 3 4 3 2 1 1 3 9 4 8 12 27 24 19 16 12
23 28 36 38 33 37 34 26 23 18 15 14 11 11 6 8 8 10 9 10 12 11 10 9 7 5 3 3 4 6 1 3 7 1 1 1 9 10 18 24 23 20 17 11 10
27 33 30 29 35 33 27 26 17 15 13 12 11 11 7 7 9 10 8 9 5 4 5 4 5 4 5 5 2 1 3 4 4 4 3 7 18 19 22 17 22 14 9 8 11
39 36 35 35 33 29 26 18 11 16 31 18 15 20 9 8 12 6 7 8 6 5 3 7 8 2 1 2 3 3 1 4 5 3 7 5 15 19 25 18 6 7 6 9 16
34 31 25 19 14 12 8 12 14 13 15 19 17 17 14 8 7 8 6 4 6 3 2 6 3 2 1 1 2 0 3 5 7 3 4 7 18 15 10 3 7 5 6 13 19
22 17 17 19 21 22 25 21 14 8 6 7 12 9 7 10 7 11 7 4 5 5 5 5 2 1 2 3 2 2 2 3 6 7 3 8 7 3 0 3 6 8 8 13 12
16 21 20 17 11 13 13 8 5 2 5 10 9 7 8 4 5 11 5 3 5 3 3 3 0 1 1 2 1 3 2 3 5 5 3 4 4 5 4 6 8 15 12 11 11
9 11 13 14 10 13 7 4 3 1 5 7 7 5 7 4 1 7 8 5 3 1 4 3 3 1 1 1 1 5 2 3 2 0 4 1 3 7 3 6 9 10 10 9 10
9 10 13 13 16 15 10 3 1 6 2 5 4 3 4 1 1 0 2 5 3 2 3 2 0 2 2 2 3 4 3 2 1 2 3 4 4 6 4 6 4 4 9 10 11
3 4 10 16 16 14 9 5 5 6 3 3 2 3 3 1 2 2 2 3 2 4 5 4 2 1 2 2 3 6 5 3 5 4 4 3 2 10 7 7 7 10 12 10 12
5 9 13 14 12 10 7 5 8 3 3 2 1 3 1 1 2 1 2 1 1 3 2 3 5 4 4 4 4 2 4 4 3 2 5 2 5 6 4 8 11 13 15 15 14
5 5 7 8 7 6 5 5 6 4 3 3 1 1 3 2 1 2 1 4 3 2 3 2 4 1 4 3 4 0 1 3 2 3 3 3 7 9 4 7 11 16 14 17 15
2 2 6 5 4 4 4 4 3 3 2 2 2 1 1 3 2 3 2 1 2 1 2 1 4 3 1 1 1 3 2 2 2 2 5 5 6 6 5 5 4 7 12 15 13
1 2 5 6 4 1 3 3 3 3 2 2 1 1 1 1 1 2 2 1 3 2 2 1 3 5 2 5 7 2 2 2 2 4 3 4 7 7 7 5 6 8 10 13 14
1 1 4 4 1 3 2 2 3 3 1 0 2 2 2 1 2 2 3 2 6 6 1 2 3 4 9 3 5 4 6 5 4 4 3 2 8 4 8 7 6 12 13 15 17
1 2 4 5 3 1 1 2 1 2 1 1 1 2 1 3 2 4 3 3 9 7 6 4 1 4 6 5 3 4 5 4 3 2 6 4 7 2 4 7 11 13 18 27 23
2 2 3 4 4 5 3 2 2 3 2 3 2 1 1 2 4 2 2 3 7 5 5 4 3 7 6 5 3 5 5 6 6 4 4 12 15 22 13 12 17 25 31 26 26
4 2 2 2 3 2 0 4 3 3 4 4 2 5 5 2 2 3 3 2 3 4 4 3 5 4 8 14 13 17 17 14 13 10 9 4 12 25 12 10 18 28 33 26 19
3 3 2 2 3 0 1 3 5 2 6 4 4 0 6 6 7 4 3 3 6 1 5 2 4 2 6 10 7 14 17 18 21 22 23 27 30 30 38 34 25 29 24 21 21
5 3 3 1 1 2 3 3 2 2 3 4 8 3 4 10 16 16 15 12 9 8 7 5 3 4 5 6 11 10 9 13 6 6 17 16 23 14 15 11 19 25 17 22 28
Wind_Direction
197 169 167 161 170 208 148 163 156 146 137 133 135 136 127 122 130 132 82 55 78 111 121 127 120 118 136 94 76 65 62 122 82 176 118 16 28 32 340 298 315 256 287 302 353
156 143 133 142 166 182 172 155 144 141 137 137 136 130 124 119 126 95 38 80 108 117 127 122 108 102 79 75 54 74 95 153 21 90 83 23 31 342 347 298 285 278 262 270 284
101 113 133 130 157 162 153 144 139 143 142 135 128 129 127 128 112 27 44 97 130 136 131 123 110 89 62 57 37 79 141 147 69 97 62 323 301 329 315 286 260 270 284 289 291
88 97 100 103 133 181 184 133 148 143 136 129 129 126 126 123 89 26 42 87 118 146 141 132 123 64 71 70 39 102 78 77 131 81 326 300 307 301 247 252 264 274 291 294 298
87 103 104 91 100 107 130 143 141 135 128 124 117 117 115 82 60 45 21 72 114 138 136 123 98 83 105 82 61 56 24 18 335 282 285 276 265 255 270 294 298 288 281 290 293
93 112 118 76 90 106 134 136 132 129 117 125 114 119 120 77 59 56 45 52 95 131 137 136 115 98 101 73 93 64 317 292 299 235 242 257 274 276 309 327 319 305 306 303 312
99 107 116 102 101 114 122 127 129 124 116 114 99 142 94 80 54 49 70 75 79 101 132 120 123 136 110 105 56 327 13 42 4 226 225 312 285 215 207 344 318 306 311 296 298
101 109 118 107 104 113 123 122 120 115 109 111 112 117 78 73 65 62 72 76 82 98 109 107 115 94 63 110 50 43 54 20 253 182 269 43 275 238 254 305 310 304 304 306 295
104 107 116 113 103 120 112 106 106 101 96 92 92 92 76 65 67 68 77 89 89 90 97 106 95 72 49 66 24 10 12 345 324 294 310 166 277 254 291 299 292 296 299 284 268
104 119 114 118 115 113 109 99 100 98 88 80 71 79 64 61 63 74 79 83 83 101 86 71 64 68 27 56 214 289 7 322 268 334 334 260 261 284 296 291 285 280 259 277 304
99 105 111 114 114 115 118 114 89 52 61 72 81 90 84 63 54 56 78 77 55 53 66 35 67 96 197 44 134 125 187 264 255 254 339 264 281 292 296 298 220 217 262 313 321
105 98 109 96 91 109 130 94 100 116 76 60 74 77 60 49 53 55 49 69 49 62 22 32 83 228 278 22 52 319 318 302 292 307 321 305 296 287 287 302 203 230 294 322 317
96 80 88 96 95 106 98 94 104 116 89 50 40 46 42 47 43 17 34 56 60 49 32 111 141 158 14 350 347 285 216 278 253 314 295 328 293 309 235 216 216 246 292 318 315
92 95 94 97 82 87 74 71 69 56 78 339 357 27 14 22 41 29 36 59 43 85 40 67 54 22 355 287 23 288 202 280 293 4 291 59 289 302 281 257 234 252 284 304 303
116 91 82 67 55 50 22 31 46 19 67 303 336 347 350 44 14 14 36 52 84 88 82 247 169 195 308 248 53 249 287 265 253 97 341 312 72 269 357 290 266 259 273 298 308
104 76 54 43 30 20 13 50 43 43 292 325 303 333 354 331 38 64 33 66 85 72 17 282 48 174 231 294 238 311 348 359 71 37 20 250 117 282 210 220 276 258 270 289 301
79 46 12 8 357 359 5 13 39 92 277 254 234 333 330 311 297 191 43 26 80 53 357 338 250 239 214 326 332 38 46 343 354 6 222 275 46 247 263 249 239 263 286 289 296
319 327 335 347 347 355 7 51 72 202 208 291 299 295 267 331 297 352 108 24 359 83 96 88 330 189 173 196 188 34 106 138 237 310 285 346 239 254 218 287 267 267 279 286 292
312 337 360 0 5 12 29 49 181 217 200 181 126 335 322 323 260 3 184 180 188 135 123 49 275 163 187 168 129 138 20 169 89 298 333 251 282 297 262 273 264 268 279 288 297
289 320 19 20 7 346 78 145 184 212 166 117 163 171 54 322 20 23 221 203 155 91 112 199 320 238 360 121 278 155 161 51 11 8 296 286 280 238 299 284 301 289 277 288 296
313 165 8 356 338 84 111 197 176 172 151 132 145 96 345 40 6 300 278 288 154 169 110 139 118 291 110 198 181 132 262 197 144 157 197 300 269 217 220 234 273 285 292 292 293
238 77 5 4 95 46 109 152 152 172 187 132 172 164 155 256 249 244 229 216 169 158 191 200 152 271 230 271 214 191 191 161 133 227 225 175 271 247 235 256 254 274 290 296 287
9 335 10 16 98 34 289 31 79 135 234 220 276 219 229 230 248 220 253 206 171 166 173 167 251 319 344 357 337 222 205 182 106 76 209 157 260 256 277 265 275 276 284 305 289
9 22 31 51 74 131 151 191 193 192 216 223 253 186 212 245 221 280 256 221 216 218 173 157 197 195 208 214 162 233 221 196 167 171 198 228 269 265 266 268 285 288 299 306 304
28 61 61 306 7 20 214 176 175 222 217 215 269 208 186 270 272 221 229 290 201 205 174 151 238 216 257 266 259 256 249 234 217 211 213 279 238 264 273 256 263 286 294 296 296
52 12 340 281 294 298 316 223 200 212 164 227 204 233 191 207 202 217 169 198 231 137 171 186 266 321 266 269 267 268 252 239 235 237 248 257 272 271 278 280 276 279 283 285 288
40 11 332 312 355 73 241 218 193 175 249 232 207 186 246 245 258 271 265 246 243 172 191 175 196 8 274 322 314 289 261 216 185 209 219 234 243 270 277 269 270 285 288 288 295